www.pogodaiklimat.ru

Погода и климат >> Архив погоды >> Испания >> Pontevedra


ПОГОДА в Pontevedra

  • Прогноз погоды в Pontevedra
  • Монитор погоды в Pontevedra
  • Климат города

АРХИВ ПОГОДЫ в Pontevedra

Время (UTC), дата Ветер
(напр.,м/с)
 
Видим.   Явления Облачность Т
(С)
Тd
(С)
f
(%)
Тe
(С)
Тes
(С)
Комфортность P
(гПа)
Po
(гПа)
Тmin
(С)
Tmax
(С)
R
(мм)
R24
(мм)
S
(см)
01 14.10 В 1 20 км н/о +12.2 +8.3 77 +12 +12 1022.4 1009.3
02 14.10 ЮВ 1 20 км н/о +11.6 +8.6 82 +12 +12 1022.0 1008.9
03 14.10 В 1 20 км н/о +11.8 +8.8 82 +13 +13 1021.8 1008.7
04 14.10 В 3 20 км н/о +11.9 +8.2 78 +11 +11 1021.4 1008.3
05 14.10 ЮВ 1 20 км н/о +11.8 +8.1 78 +13 +13 1021.3 1008.2
06 14.10 СВ 3 8000 м мгла ясно +11.9 +7.8 76 +11 +11 1021.5 1008.4 +11.5
07 14.10 В 2 20 км н/о +11.7 +7.6 76 +11 +11 1021.8 1008.7
08 14.10 В 2 20 км н/о +13.3 +7.7 69 +13 +13 1022.1 1009.1
09 14.10 СЗ 1 10 км ясно +14.9 +8.8 67 +16 +19 1022.1 1009.2
10 14.10 СЗ 1 20 км н/о +17.8 +10.4 62 +19 +19 1021.8 1009.0
11 14.10 СЗ 1 20 км н/о +21.2 +10.1 49 +23 +23 комфорт 1021.2 1008.6
12 14.10 Ю 1 8000 м мгла ясно +24.7 +11.3 43 +26 +35 жарко 1020.4 1007.9
13 14.10 Ю 1 20 км н/о +26.0 +11.7 41 +27 +27 жарко 1019.5 1007.1
14 14.10 Ю 1 20 км н/о +24.1 +11.8 46 +26 +26 жарко 1019.5 1007.0
15 14.10 Ю 1 6000 м мгла 1/0
[Ac trans Ci fib]
+22.8 +12.1 51 +25 +31 комфорт 1019.3 1006.8
16 14.10 ЮВ 1 20 км н/о +23.2 +12.8 52 +26 +26 жарко 1018.6 1006.1
17 14.10 Ю 1 20 км н/о +22.5 +13.3 56 +25 +25 комфорт 1018.2 1005.7
18 14.10 ЮВ 1 6000 м мгла ясно +22.0 +12.0 53 +24 +24 комфорт 1018.2 1005.6 +26.0
19 14.10 ЮВ 2 18 км н/о +19.5 +12.3 63 +22 +22 комфорт 1019.0 1006.3
20 14.10 СВ 1 20 км н/о +19.1 +12.1 64 +22 +22 комфорт 1018.9 1006.2
21 14.10 СВ 3 20 км н/о +19.4 +11.7 61 +21 +21 комфорт 1018.9 1006.2
22 14.10 В 2 19 км н/о +19.9 +11.9 60 +22 +22 комфорт 1018.7 1006.0
23 14.10 В 1 19 км н/о +20.1 +9.0 49 +22 +22 комфорт 1018.8 1006.1
00 15.10 В 1 20 км н/о +21.1 +9.0 46 +22 +22 комфорт 1018.3 1005.7
01 15.10 Ю 2 19 км н/о +19.5 +11.3 59 +22 +22 комфорт 1018.7 1006.0
02 15.10 С 1 18 км н/о +20.9 +9.5 48 +24 +24 комфорт 1017.9 1005.3
03 15.10 В 2 20 км н/о +20.4 +8.7 47 +22 +22 комфорт 1017.6 1005.0
04 15.10 СВ 2 18 км н/о +21.7 +8.6 43 +23 +23 комфорт 1017.2 1004.6
05 15.10 СВ 1 19 км н/о +21.8 +8.0 41 +23 +23 комфорт 1017.5 1004.9
06 15.10 С 1 5000 м дым 6/0
[Ac trans Ci fib]
+22.2 +8.3 41 +23 +23 комфорт 1017.4 1004.8 +18.7
07 15.10 ЮВ 1 20 км н/о +22.1 +8.6 42 +23 +23 комфорт 1017.3 1004.7
08 15.10 СВ 2 15 км н/о +22.2 +8.7 42 +24 +24 комфорт 1017.3 1004.7
09 15.10 С 2 8000 м дым 9/0
[Ac und Ci fib]
+23.2 +10.9 46 +25 +26 комфорт 1017.0 1004.5
10 15.10 С 1 15 км н/о +25.8 +10.0 37 +27 +27 жарко 1016.8 1004.4
11 15.10 С 1 19 км н/о +25.7 +10.3 38 +27 +27 жарко 1016.9 1004.5
12 15.10 Ю 1 8000 м мгла 9/0
[Ac und Ci fib]
+26.3 +12.7 43 +28 +32 жарко 1016.1 1003.7
13 15.10 ЮЗ 1 19 км н/о +26.9 +13.3 43 +29 +29 жарко 1015.0 1002.7
14 15.10 З 1 17 км н/о +28.4 +11.9 36 +29 +29 жарко 1013.9 1001.6
15 15.10 Ю 4 6000 м дым 6/0
[Ac trans Ci fib]
+31.0 +6.8 22 +30 +32 жарко 1012.8 1000.6
16 15.10 Ю 4 19 км н/о +30.8 +7.9 24 +30 +30 жарко 1012.1 1000.0
17 15.10 Ю 3 20 км н/о +29.7 +8.7 27 +29 +29 жарко 1011.9 999.7
18 15.10 Ю 3 6000 м дым 8/0
[Ac trans Ci fib]
+29.0 +7.5 26 +28 +28 жарко 1012.0 999.8 +31.1
19 15.10 Ю 4 20 км н/о +28.2 +7.4 27 +28 +28 жарко 1012.4 1000.1
20 15.10 Ю 3 20 км н/о +26.6 +8.1 31 +27 +27 жарко 1012.7 1000.4
21 15.10 Ю 4 14 км н/о +25.4 +8.4 34 +26 +26 жарко 1013.3 1000.9
22 15.10 Ю 4 3600 м н/о +25.0 +10.1 39 +26 +26 жарко 1014.0 1001.6
23 15.10 Ю 3 2200 м н/о +23.6 +13.7 54 +26 +26 жарко 1015.0 1002.5
00 16.10 Ю 3 3900 м н/о +22.4 +16.2 68 +27 +27 душно 1015.7 1003.2
01 16.10 Ю 3 2900 м н/о +22.0 +17.1 74 +26 +26 душно 1015.8 1003.3
02 16.10 Ю 2 10 км н/о +21.3 +16.9 76 +25 +25 комфорт 1016.6 1004.0
03 16.10 Ю 1 8000 м н/о +20.6 +17.0 80 +25 +25 комфорт 1016.6 1004.0 0.0
04 16.10 ЮЗ 1 9000 м слаб. морось н/о +18.2 +16.7 91 +20 +20 1017.7 1005.0 0.2
05 16.10 З 1 н/о в посл. час морось н/о +17.7 +16.6 93 +19 +19 1018.2 1005.5 0.0
06 16.10 ЮЗ 1 3500 м дымка 10/8 300 м
[Cu Sc Ac As]
+17.2 +14.8 86 +19 +19 1019.1 1006.3 +17.2 0.2
07 16.10 штиль 0 11 км н/о +16.6 +14.4 87 +16 +16 1019.9 1007.1
08 16.10 В 1 13 км н/о +16.3 +14.0 86 +18 +18 1020.9 1008.1
09 16.10 С 1 5000 м осадки на расстоянии 10/4 300 м
[Sc As op]
+16.1 +13.2 83 +17 +17 1021.7 1008.8 0.0
10 16.10 СВ 1 9000 м слаб. морось н/о +15.4 +13.4 88 +16 +16 1022.0 1009.1 0.0
11 16.10 СВ 1 15 км в посл. час морось н/о +15.6 +13.8 89 +16 +16 1021.8 1008.9 0.0
12 16.10 СЗ 1 8000 м дымка {морось} 10/1 50 м
[Frnb Ac As]
+15.9 +13.7 87 +17 +19 1021.8 1008.9 0.0
13 16.10 СЗ 1 15 км слаб. морось н/о +15.9 +13.7 87 +17 +17 1021.5 1008.6 0.0
14 16.10 С 1 7000 м слаб. морось н/о +15.2 +13.6 90 +16 +16 1021.2 1008.3 0.4
15 16.10 СВ 1 4000 м дымка {морось} 10/3 50 м
[Frnb As op]
+15.3 +14.0 92 +16 +16 1020.9 1008.0 0.8
16 16.10 З 1 6000 м слаб. морось н/о +15.0 +14.5 97 +15 +15 1020.7 1007.8 0.2
17 16.10 СВ 1 5000 м дождь н/о +15.0 +14.5 97 +15 +15 1020.3 1007.4 0.2
18 16.10 СВ 1 4000 м слабый дождь {морось} 10/8 300 м
[Sc Ac As]
+14.9 +14.4 97 +15 +15 1020.3 1007.4 +17.2 3
19 16.10 СВ 1 5000 м слаб. морось с дождем н/о +14.9 +14.3 96 +15 +15 1019.7 1006.8 0.2
20 16.10 Ю 1 2500 м в посл. час дождь н/о +14.6 +14.1 97 +16 +16 1019.5 1006.6 0.2
21 16.10 ЮВ 1 3400 м н/о +14.4 +13.9 97 +15 +15 1019.1 1006.2 0.4
22 16.10 СЗ 1 6000 м н/о +14.0 +13.5 97 +15 +15 1019.4 1006.5
23 16.10 С 1 н/о н/о +14.2 +13.9 98 +15 +15 1018.9 1006.0
00 17.10 Ю 1 1100 м дождь н/о +14.2 +14.0 99 +14 +14 1018.7 1005.8 0.4
01 17.10 Ю 1 1600 м слаб. морось н/о +14.2 +14.0 99 +15 +15 1018.1 1005.2 2
02 17.10 штиль 0 2100 м слаб. морось с дождем н/о +14.1 +14.1 100 +14 +14 1017.0 1004.1 1
03 17.10 Ю 1 600 м дождь н/о +14.3 +14.3 100 +15 +15 1016.6 1003.7 4
04 17.10 Ю 1 800 м морось с дождем н/о +14.2 +14.2 100 +15 +15 1016.8 1003.9 0.2
05 17.10 ЮВ 1 1500 м слаб. морось с дождем н/о +14.0 +13.8 99 +15 +15 1016.8 1003.9 0.4
06 17.10 ЮВ 2 3000 м туман на расстоянии 9/3 50 м
[Frnb Ac As Ci fib]
+13.9 +12.9 94 +14 +14 1016.9 1004.0 +13.6 0.6
07 17.10 ЮВ 2 13 км н/о +12.4 +11.9 97 +12 +12 1016.8 1003.8
08 17.10 З 1 7000 м н/о +13.1 +13.1 100 +14 +14 1017.3 1004.4
09 17.10 С 1 6000 м дымка 3/1 50 м
[Sc Ac trans Ci fib]
+14.1 +13.1 94 +14 +16 1017.5 1004.6
10 17.10 Ю 2 14 км н/о +16.4 +12.9 80 +16 +16 1016.9 1004.1
11 17.10 ЮВ 3 20 км н/о +18.2 +12.9 71 +19 +19 1016.4 1003.7
12 17.10 ЮВ 4 10 км 4/3 300 м
[Cu med, cong Ac trans Ci fib]
+18.1 +11.9 67 +18 +22 1015.8 1003.1 0.0
13 17.10 Ю 3 20 км н/о +18.5 +11.6 64 +19 +19 1015.0 1002.3
14 17.10 Ю 3 20 км н/о +18.3 +10.4 60 +19 +19 1013.9 1001.2
15 17.10 Ю 3 10 км 9/1 300 м
[Cu Sc Ac As Ci fib]
+17.9 +10.0 60 +18 +20 1013.6 1000.9
16 17.10 Ю 2 6000 м дождь н/о +15.9 +11.9 77 +16 +16 1014.1 1001.3 0.4
17 17.10 Ю 2 н/о дождь н/о +13.7 +12.1 90 +13 +13 1014.4 1001.5 1
18 17.10 ЮВ 2 6000 м слабый дождь 10/4 100 м
[Frnb As op]
+13.3 +12.2 93 +12 +12 1013.3 1000.4 +18.6 2
19 17.10 ЮВ 2 6000 м дождь н/о +13.4 +12.5 94 +13 +13 1013.2 1000.3 0.8
20 17.10 ЮЗ 1 4900 м дождь н/о +13.2 +12.4 95 +14 +14 1013.0 1000.1 2
21 17.10 Ю 2 13 км слаб. морось с дождем н/о +13.0 +12.4 96 +12 +12 1012.4 999.5 4
22 17.10 ЮВ 3 12 км слаб. морось с дождем н/о +12.9 +12.1 95 +11 +11 1012.2 999.3 0.4
23 17.10 Ю 2 6000 м дождь н/о +12.8 +12.3 97 +12 +12 1012.1 999.2 0.8
00 18.10 В 1 6000 м слаб. дождь н/о +12.3 +12.1 99 +13 +13 1011.7 998.8 7
01 18.10 С 1 6000 м дождь н/о +12.3 +12.3 100 +12 +12 1011.5 998.6 2
02 18.10 ЮВ 1 15 км в посл. час дождь н/о +12.4 +12.4 100 +12 +12 1011.2 998.3 0.2
03 18.10 С 1 20 км слаб. морось {дождь} н/о +12.4 +12.2 99 +12 +12 1010.6 997.7 2
04 18.10 ЮВ 2 20 км в посл. час дождь н/о +12.0 +11.5 97 +11 +11 1010.2 997.3 0.0
05 18.10 Ю 1 18 км слаб. дождь н/о +11.6 +11.3 98 +12 +12 1010.1 997.2 0.0
06 18.10 СВ 2 5000 м дымка 9/3 200 м
[Cu Sc Ac As Ci fib]
+11.6 +11.1 97 +11 +11 1010.3 997.4 +11.5 0.2
07 18.10 С 1 11 км слаб. морось н/о +11.4 +11.1 98 +11 +11 1010.3 997.4 0.0
08 18.10 З 1 1600 м слаб. дождь н/о +11.6 +11.4 99 +11 +11 1010.7 997.8 0.6
09 18.10 ЮВ 1 8000 м слабый дождь 9/9 200 м
[Cu Sc Ac trans Ci fib]
+12.1 +12.1 100 +12 +12 1011.2 998.3 0.8
11 18.10 З 2 18 км в посл. час дождь н/о +13.4 +13.1 98 +13 +13 1011.4 998.5 2
12 18.10 СЗ 1 6000 м в посл. час ливневой дождь 9/8 300 м
[Cb calv Ac As]
+13.7 +13.1 96 +15 +16 1011.4 998.6 4
14 18.10 З 2 14 км н/о +15.2 +13.6 90 +15 +15 1010.7 997.9
13 18.10 ЮЗ 1 20 км в посл. час дождь н/о +14.9 +14.4 97 +15 +15 1011.1 998.3 0.2
15 18.10 З 2 20 км {ливн. осадки} 4/3 300 м
[Cu med, cong Ac cuf]
+15.4 +12.9 85 +16 +19 1010.5 997.7 0.2
16 18.10 З 1 20 км н/о +15.4 +13.2 87 +16 +16 1010.3 997.6
17 18.10 З 1 20 км н/о +15.3 +13.0 86 +17 +17 1010.6 997.8
18 18.10 СВ 1 15 км {ливн. осадки} 4/3 300 м
[Sc Ac trans]
+14.2 +12.4 89 +15 +15 1011.1 998.3 +15.6
20 18.10 ЮВ 1 20 км н/о +12.5 +11.2 92 +13 +13 1012.1 999.2
19 18.10 В 1 20 км н/о +13.3 +11.7 90 +14 +14 1011.7 998.8
21 18.10 СВ 3 20 км н/о +12.0 +11.2 95 +10 +10 1011.9 999.0
22 18.10 В 2 20 км н/о +11.5 +10.7 95 +10 +10 1012.2 999.2
23 18.10 В 1 19 км н/о +10.8 +10.0 95 +10 +10 1012.3 999.3
00 19.10 СВ 3 20 км н/о +10.4 +9.8 96 +8 +8 1012.2 999.2
02 19.10 ЮВ 1 20 км н/о +10.1 +9.5 96 +9 +9 1011.8 998.8
01 19.10 В 2 20 км н/о +10.2 +9.6 96 +9 +9 1011.8 998.8
03 19.10 СВ 2 20 км н/о +10.6 +9.7 94 +9 +9 1011.8 998.8
04 19.10 ЮВ 1 20 км н/о +10.6 +10.1 97 +11 +11 1011.3 998.3
05 19.10 В 1 20 км н/о +11.3 +10.5 95 +11 +11 1011.0 998.0
06 19.10 В 1 20 км 10/10 200 м
[Cu Sc]
+11.6 +10.7 94 +12 +12 1010.7 997.8 +10.0
08 19.10 ЮЗ 1 7000 м слаб. морось н/о +12.0 +11.2 95 +13 +13 1011.9 999.0 0.2
07 19.10 СЗ 1 20 км н/о +11.8 +10.7 93 +12 +12 1011.1 998.2
09 19.10 СВ 1 15 км слабая морось 10/10 200 м
[Sc]
+12.2 +11.7 97 +13 +13 1012.3 999.4 0.2
10 19.10 СЗ 1 6000 м дождь н/о +12.9 +12.4 97 +13 +13 1012.3 999.4 0.2
11 19.10 СЗ 2 14 км в посл. час морось н/о +13.1 +12.9 99 +12 +12 1012.5 999.6 0.4
12 19.10 СЗ 1 20 км {дождь} 9/9 200 м
[Cu Sc]
+14.6 +14.1 97 +15 +16 1012.4 999.6 0.6
14 19.10 Ю 2 2900 м морось с дождем н/о +15.2 +14.4 95 +15 +15 1011.8 999.0 0.0
13 19.10 Ю 2 11 км н/о +15.7 +14.2 91 +16 +16 1011.4 998.7
15 19.10 З 1 3000 м слабый дождь 10/10 200 м
[Frnb]
+14.9 +14.6 98 +15 +15 1011.5 998.7 0.6
16 19.10 СВ 1 1700 м морось с дождем н/о +14.9 +14.7 99 +15 +15 1011.4 998.6 1
17 19.10 С 2 4400 м слаб. морось с дождем н/о +14.8 +14.8 100 +15 +15 1012.0 999.2 1
18 19.10 С 1 2000 м слабый дождь 10/10 200 м
[Frnb]
+14.9 +14.9 100 +16 +16 1012.3 999.5 +16.0 6
20 19.10 С 2 6000 м слаб. морось н/о +14.9 +14.9 100 +15 +15 1013.3 1000.5 0.2
19 19.10 СВ 1 9000 м слаб. морось н/о +15.0 +15.0 100 +15 +15 1012.9 1000.1 2
21 19.10 ЮВ 1 7000 м н/о +15.3 +15.3 100 +16 +16 1013.8 1001.0 2
22 19.10 штиль 0 4600 м н/о +15.5 +15.5 100 +15 +15 1014.2 1001.4
23 19.10 Ю 1 1500 м н/о +15.4 +15.4 100 +17 +17 1014.5 1001.7
00 20.10 СВ 1 2800 м в посл. час морось н/о +15.4 +15.4 100 +16 +16 1014.6 1001.8 0.0
02 20.10 ЮВ 1 1700 м н/о +15.1 +15.1 100 +16 +16 1014.8 1002.0
01 20.10 Ю 1 1800 м н/о +15.5 +15.5 100 +16 +16 1014.9 1002.1 0.0
03 20.10 Ю 2 2700 м н/о +15.1 +15.1 100 +15 +15 1015.0 1002.2 0.0
04 20.10 Ю 2 3700 м н/о +15.1 +15.1 100 +15 +15 1015.0 1002.2
05 20.10 Ю 2 3200 м н/о +14.6 +14.6 100 +14 +14 1015.5 1002.7
06 20.10 ЮВ 2 20 км 9/9 200 м
[Frnb]
+14.3 +14.3 100 +14 +14 1016.0 1003.1 +14.3
08 20.10 СВ 1 13 км н/о +15.2 +15.2 100 +16 +16 1016.8 1004.0
07 20.10 ЮВ 2 7000 м н/о +14.7 +14.7 100 +14 +14 1016.4 1003.6
09 20.10 ЮВ 1 12 км в посл. час дождь 10/9 200 м
[Cu Sc Ac As]
+15.6 +15.4 99 +16 +16 1017.2 1004.4 0.0
10 20.10 СЗ 1 8000 м н/о +16.1 +16.1 100 +17 +17 1017.4 1004.6 0.0
11 20.10 СЗ 1 6000 м в посл. час морось н/о +16.6 +16.4 99 +17 +17 1017.5 1004.7 0.0
12 20.10 Ю 2 6000 м в посл. час дождь 10/9 200 м
[Sc Ac As]
+18.0 +17.7 98 +19 +19 1016.9 1004.2 0.0
14 20.10 Ю 3 10 км слаб. морось н/о +18.8 +18.1 96 +20 +20 1016.5 1003.8 0.0
13 20.10 Ю 4 12 км в посл. час морось н/о +18.3 +18.0 98 +19 +19 1016.5 1003.8 0.0
15 20.10 Ю 2 20 км {дождь} 9/8 200 м
[Cu Sc Ac As]
+20.2 +17.8 86 +24 +24 комфорт 1016.3 1003.7 0.0
16 20.10 Ю 2 17 км н/о +19.4 +16.8 85 +22 +22 комфорт 1016.4 1003.8
17 20.10 Ю 2 14 км н/о +19.1 +17.2 89 +21 +21 комфорт 1016.4 1003.8
18 20.10 Ю 3 2000 м {дождь} 10/9 200 м
[Cu Sc Ac As]
+19.3 +17.3 88 +21 +21 комфорт 1016.5 1003.9 +20.2
20 20.10 Ю 2 н/о слаб. морось с дождем н/о +18.6 +17.8 95 +20 +20 1017.0 1004.3 0.2
19 20.10 Ю 4 8000 м н/о +19.1 +17.4 90 +21 +21 комфорт 1016.7 1004.1
21 20.10 ЮЗ 1 1400 м морось с дождем н/о +15.6 +15.4 99 +16 +16 1019.4 1006.6 3
22 20.10 Ю 2 2400 м морось с дождем н/о +14.6 +14.6 100 +14 +14 1020.1 1007.2 4
23 20.10 Ю 1 3400 м слаб. морось н/о +14.8 +14.8 100 +15 +15 1020.5 1007.6 0.6
00 21.10 В 1 4200 м в посл. час морось {дождь} н/о +14.7 +14.7 100 +16 +16 1021.3 1008.4 5

 

Местоположение метеостанции Pontevedra (Испания): широта 42.43 долгота -8.62 высота над уровнем моря 108 м.

В архиве по умолчанию представлена погода в Pontevedra за последнюю неделю. Архивные данные за месяц целиком и за предыдущие месяцы, начиная с января 2011 года, Вы можете получить, выбрав интересующий диапазон дат из раскрывающегося списка и нажав кнопку "Ввод!".

Внимание! Время в таблицах - всемирное. Для получения местного времени необходимо прибавить поправку, которая в Pontevedra равна 1 ч.

Смотрите также архив погоды в соседних городах и на ближайших метеорологических станциях:

Погода в Vigo (Испания) (22 км)
Погода в Santiago (Испания) (55 км)
Погода в Orense (Испания) (63 км)
Погода в Viana Do Castelo (Португалия) (90 км)
Погода в La Coruna (Испания) (106 км)
Погода в Lugo (Испания) (123 км)
Погода в Porto (Португалия) (134 км)
Погода в Vila Real (Португалия) (149 км)
Погода в Ponferrada (Испания) (168 км)
Погода в Ovar (Португалия) (168 км)

Пояснения к столбцам:

Ветер - указаны скорость ветра в м/с - средняя за 10 мин, порывы в срок и между сроками (в фигурных скобках) и направление, откуда дует ветер: С - северный, СВ - северо-восточный, В - восточный, ЮВ - юго-восточный, Ю - южный, ЮЗ - юго-западный, З - западный, СЗ - северо-западный.
Видимость - горизонтальная дальность видимости в метрах или километрах. При видимости от 1 до 10 км при отсутствии осадков обычно наблюдается дымка, при ухудшении видимости до 1 км и менее - туман. В сухую погоду видимость может ухудшаться дымом, пылью или мглою.
Явления - указаны атмосферные явления, наблюдавшиеся в срок или в последний час перед сроком; фигурными скобками обозначены явления, наблюдавшиеся между сроками (за 1-3 часа до срока); квадратными скобками обозначены град или гололедные отложения с указанием их диаметра в мм.
Облачность - указаны через наклонную черту общая и нижняя облачность в баллах и высота нижней границы облаков в метрах; квадратными скобками обозначены формы облаков: Ci - перистые, Cs - перисто-слоистые, Cc - перисто-кучевые, Ac - высококучевые, As - высокослоистые, Sc - слоисто-кучевые, Ns - слоисто-дождевые, Cu - кучевые, Cb - кучево-дождевые. Подробнее классификацию облаков см. в Атласе облаков (PDF).
T - Температура воздуха - температура, измеренная на высоте 2 м над землей.
Td - Температура точки росы - температура, при понижении до которой содержащийся в воздухе водяной пар достигнет насыщения.
f - Относительная влажность воздуха - влажноcть воздуха, измеренная на высоте 2 м над землей.
Te - Эффективная температура - температура, которую ощущает одетый по сезону человек в тени. Характеристика душности погоды. При расчете учитывается влияние влажности воздуха и скорости ветра на теплоощущения человека.
Tes - Эффективная температура на солнце - температура, которую ощущает человек, с поправкой на солнечный нагрев. Характеристика знойности погоды. Зависит от высоты солнца над горизонтом, облачности и скорости ветра. Ночью, в пасмурную погоду, а также при ветре 12 м/с и более поправка равна нулю.
P - Атмосферное давление - приведенное к уровню моря атмосферное давление.
Po - Атмосферное давление - измеренное на уровне метеостанции атмосферное давление.
Tmin - Минимальная температура - минимум температуры воздуха на высоте 2 м над землей.
Tmax - Максимальная температура - максимум температуры воздуха на высоте 2 м над землей.
R - Количество осадков - Количество выпавших осадков за период времени, мм. При наведении курсора мыши на число - период времени, за который выпало указанное количество осадков.
R24 - Количество осадков - Количество выпавших осадков за 24 часа, мм.
S - Снежный покров - Высота снежного покрова, см. При наведении курсора мыши на число - состояние снежного покрова и степень покрытия местности в баллах.